Wind_Speed
37 36 35 34 36 39 42 44 44 44 45 46 47 47 47 47 46 45 44 43 42 40 39 38 37 37 37 37 37 37 38 39 39 40 40 40 41 41 41 41 41 42 42 43 43 44 44 44 44 44 44 44 44 44 44 44 44 44 44 44 44 44 44 44 43 43 43 43 43 43 43 44 44 44 44 44 44 45 45 45 45 45 45 45 45 45
39 39 37 36 37 39 42 43 43 44 45 47 47 47 46 46 45 44 43 41 40 39 38 37 37 37 36 37 37 38 38 39 40 40 41 41 41 41 41 42 42 42 43 43 44 44 44 44 44 44 44 44 44 44 44 44 44 44 44 44 44 43 43 43 43 43 43 43 43 43 43 43 44 44 44 44 44 45 45 45 45 45 45 45 45 45
41 41 41 40 40 40 42 43 43 44 46 47 47 47 46 45 44 43 41 39 38 37 37 37 37 37 37 37 38 38 39 40 40 41 41 41 41 42 42 42 43 43 43 44 44 44 44 44 44 44 44 44 44 44 44 44 44 44 44 43 43 43 43 43 43 43 42 43 43 43 43 43 43 44 44 44 44 44 44 44 44 44 44 44 45 45
43 43 44 44 44 44 44 45 45 46 47 48 47 47 45 44 42 41 39 38 37 37 38 38 38 38 38 38 39 39 40 40 41 41 41 42 42 42 42 43 43 43 44 44 44 44 44 44 44 44 44 44 44 44 44 44 44 44 43 43 43 43 42 42 42 42 42 42 42 43 43 43 43 43 43 44 44 44 44 44 44 44 44 44 44 44
44 45 46 47 47 47 48 48 48 48 48 48 47 45 44 42 41 39 38 37 37 37 38 39 39 39 39 39 39 40 40 41 41 42 42 42 42 43 43 43 44 44 44 44 44 44 44 45 45 45 45 45 45 44 44 44 44 43 43 43 43 42 42 42 42 42 42 42 42 42 42 43 43 43 43 43 43 43 43 43 43 43 43 43 44 44
47 48 49 50 50 50 50 50 50 49 48 46 45 43 42 41 39 38 37 37 37 38 39 40 40 39 40 40 40 41 41 41 42 42 42 43 43 43 44 44 44 44 44 44 44 45 45 45 45 45 45 45 45 44 44 44 43 43 43 42 42 42 42 42 42 42 42 42 42 42 42 42 42 42 42 42 42 42 42 42 43 43 43 43 43 43
51 51 51 52 52 52 52 50 49 47 44 43 42 41 40 39 39 38 38 38 38 39 40 40 40 40 40 41 41 41 42 42 42 42 43 43 43 44 44 44 44 45 45 45 45 45 45 45 45 45 45 45 45 44 44 43 43 43 42 42 42 42 42 42 42 42 42 42 42 42 42 42 42 42 42 42 42 42 42 42 42 42 42 42 42 42
53 53 53 53 53 52 50 48 45 42 40 40 40 40 39 39 39 39 39 39 39 40 40 41 41 41 41 42 42 42 42 42 43 43 43 44 44 44 45 45 45 45 45 45 45 45 45 45 45 45 45 45 44 44 43 43 42 42 42 42 41 41 41 41 41 42 42 42 42 42 42 41 41 41 41 41 41 41 41 41 41 41 41 41 41 41
53 53 52 51 50 48 46 44 41 39 39 40 42 42 42 41 41 41 40 40 40 41 41 41 41 42 42 42 42 42 42 43 43 44 44 45 45 45 45 45 45 46 46 46 46 46 46 46 46 45 45 44 44 43 43 42 42 42 41 41 41 41 41 41 41 41 41 41 41 41 41 41 41 41 41 40 40 40 40 40 40 40 40 40 40 40
48 48 47 46 45 43 41 40 39 39 39 41 44 45 45 44 43 43 42 42 41 41 41 42 42 42 42 42 42 42 42 43 44 45 45 45 46 46 46 46 46 46 46 46 46 46 46 46 46 45 45 44 43 43 42 42 42 41 41 41 41 41 41 41 41 41 41 41 41 40 40 40 40 40 40 40 40 39 39 39 39 39 39 39 39 39
43 43 42 42 41 39 37 37 38 39 39 41 43 44 45 45 44 44 43 42 41 41 41 41 41 41 41 41 41 42 42 43 44 45 46 46 47 47 47 46 46 46 46 46 46 46 46 46 45 45 44 44 43 43 42 42 42 41 41 41 41 41 41 41 41 41 40 40 40 40 40 39 39 39 39 39 39 39 39 38 38 38 38 38 38 38
42 42 41 40 39 37 36 37 37 38 38 39 41 42 44 44 44 43 41 41 40 40 40 40 40 40 40 40 41 41 42 43 44 45 47 47 47 47 47 47 47 47 47 46 46 46 46 46 45 45 44 43 43 43 42 42 42 42 42 41 41 41 41 41 41 41 41 40 40 40 39 39 39 38 38 38 38 38 38 38 38 38 38 38 38 38
45 45 44 42 39 37 36 36 37 37 38 38 39 40 42 42 42 40 39 39 39 39 39 39 39 39 39 40 40 41 42 43 44 45 46 47 47 47 47 47 47 47 47 47 47 47 46 46 45 45 44 43 43 43 43 43 42 42 42 42 42 42 42 42 41 41 41 41 40 40 39 39 38 38 38 37 37 37 37 37 38 38 38 38 38 38
48 48 47 45 41 38 37 36 36 37 37 37 38 39 40 40 40 38 38 38 38 38 38 37 38 39 39 40 41 42 43 43 44 45 45 46 46 46 46 46 47 47 46 46 46 46 46 45 44 44 44 43 43 43 43 43 43 42 42 42 42 42 42 42 42 42 41 41 40 40 39 39 38 38 37 37 37 37 37 38 38 38 38 39 39 39
47 48 49 46 42 38 36 36 36 36 36 36 36 37 38 39 38 37 37 37 37 38 37 37 38 39 40 41 41 42 43 44 44 44 44 45 45 45 45 45 46 46 45 45 45 45 45 44 43 43 43 42 42 43 43 43 43 43 43 43 43 43 43 42 42 42 42 41 41 40 39 39 39 38 38 38 38 38 38 38 39 39 39 40 40 40
45 47 47 45 41 38 36 35 35 35 35 34 34 35 36 38 38 37 37 37 37 37 37 38 39 40 41 42 42 43 43 44 45 45 44 44 44 45 44 44 45 45 44 43 43 43 43 42 42 42 41 41 42 42 42 42 42 42 43 43 43 43 43 42 42 42 42 41 41 40 40 40 40 40 40 39 39 39 40 40 40 40 40 40 41 41
44 44 44 42 39 36 35 34 33 33 33 33 33 34 35 36 38 38 38 38 38 38 39 40 40 41 41 41 42 43 43 44 45 45 44 43 43 44 43 43 43 44 43 42 42 42 42 41 41 40 40 41 41 42 42 42 42 42 42 42 42 42 42 42 42 42 41 41 41 41 41 41 41 41 41 41 41 41 41 41 41 41 41 41 41 42
42 41 40 38 36 34 33 32 32 32 33 33 33 34 35 36 38 39 39 39 39 40 41 41 41 42 42 42 42 43 43 43 45 45 45 43 43 42 42 42 42 43 42 41 41 41 40 40 39 39 39 40 41 41 41 41 42 42 42 42 42 42 42 42 41 41 41 41 41 41 41 41 42 42 42 42 42 42 42 42 42 42 42 42 42 42
39 37 36 35 34 33 32 32 32 33 33 34 34 34 35 36 37 39 39 40 41 41 41 42 42 42 42 42 43 44 43 43 44 45 45 44 42 41 41 41 41 42 41 40 40 39 39 39 39 39 39 40 40 40 41 41 41 41 41 41 41 41 41 41 41 41 41 41 42 42 42 42 42 42 43 43 42 42 42 42 42 42 43 43 43 43
37 35 34 35 35 35 35 35 35 34 34 35 35 35 35 36 37 38 39 40 41 41 41 42 42 42 42 42 43 44 44 44 44 45 45 44 42 41 41 40 41 41 40 39 39 38 38 38 38 38 38 39 39 40 40 40 40 40 40 41 41 41 41 41 41 41 42 42 42 43 43 43 43 43 43 43 43 43 43 43 43 43 43 43 43 43
36 35 35 36 37 38 38 37 36 35 36 36 36 35 35 36 37 38 39 40 40 41 41 41 42 42 43 43 43 44 44 44 45 45 45 44 42 41 40 40 40 40 39 38 38 37 37 37 37 37 38 38 38 38 38 38 39 39 39 40 40 40 41 41 41 42 42 43 43 44 44 44 44 44 44 43 43 43 43 43 43 43 43 43 43 43
36 35 36 37 38 38 37 37 36 36 36 36 36 36 36 36 37 38 39 39 40 40 41 41 42 43 43 43 44 44 45 44 45 45 45 44 42 41 40 40 40 40 39 38 37 37 37 37 37 37 37 37 37 37 37 37 37 38 38 39 39 40 40 41 42 42 43 44 44 45 45 45 45 45 44 44 44 44 43 43 43 43 43 43 42 42
38 36 37 37 37 36 35 35 35 35 36 36 36 36 37 37 37 38 39 39 40 40 41 42 43 43 44 44 44 44 44 44 44 44 44 43 42 41 40 40 40 40 39 38 37 36 36 36 36 36 36 36 36 35 35 36 36 37 37 38 39 39 40 41 42 43 43 44 45 45 45 45 45 45 45 45 44 44 44 43 43 43 43 43 42 42
40 39 39 39 37 35 34 34 34 35 35 36 36 37 37 37 38 38 39 39 40 41 42 43 43 43 43 43 43 42 43 43 43 43 43 43 42 41 41 40 40 40 39 38 37 36 36 35 35 35 34 34 34 34 34 34 35 36 37 37 38 39 40 41 42 43 43 44 45 45 45 45 45 45 45 44 44 44 44 43 43 43 43 43 43 42
42 41 41 39 37 34 33 34 34 35 35 36 36 37 37 38 38 39 39 40 40 41 42 43 43 43 42 42 41 41 41 42 42 42 43 43 43 42 41 41 40 40 39 38 36 36 35 35 34 33 33 33 33 33 33 33 34 35 36 37 38 39 40 41 42 43 43 44 44 45 45 45 44 44 44 44 43 43 43 43 43 43 43 43 43 43
43 41 40 37 35 34 34 34 35 35 35 36 36 37 37 38 38 39 39 40 41 42 42 43 42 42 42 41 40 40 40 40 41 41 42 42 42 42 41 41 41 40 39 38 36 35 35 34 33 32 32 32 32 32 32 33 34 35 36 37 38 39 40 41 42 43 43 44 44 44 44 44 44 43 43 43 42 42 42 42 42 42 42 43 43 43
41 39 36 34 33 33 33 34 34 35 36 36 37 37 38 38 39 39 39 40 41 42 42 42 42 41 41 40 39 39 38 39 39 40 41 42 42 41 41 41 40 40 39 38 37 35 34 33 32 31 31 31 30 30 31 32 33 34 36 37 38 39 40 41 42 42 43 43 43 43 43 43 43 43 42 42 42 42 41 42 42 42 42 42 43 43
37 34 32 31 32 32 33 34 34 35 36 37 37 38 39 39 39 39 39 40 41 41 41 41 41 41 40 39 38 38 37 37 38 39 41 41 41 41 40 40 40 40 39 38 37 36 34 33 32 31 30 30 29 29 30 31 32 34 35 36 38 39 40 40 41 42 42 42 42 42 42 42 42 41 41 41 41 41 41 41 41 42 42 42 43 43
31 30 29 30 31 32 33 34 34 35 36 37 38 39 40 40 40 39 40 40 40 40 40 40 40 40 40 39 38 37 36 36 37 39 40 40 40 40 40 40 39 40 40 39 38 36 34 32 31 30 29 29 29 29 29 30 32 33 35 36 37 38 39 40 40 41 41 41 41 41 41 41 41 40 40 40 40 40 41 41 41 42 42 42 42 43
30 29 29 30 31 32 33 34 35 36 37 38 39 39 40 40 40 40 40 40 39 39 39 39 39 39 39 38 37 36 35 35 36 38 39 40 40 39 39 39 39 39 39 40 39 37 34 32 31 30 29 29 28 28 29 30 31 33 34 36 36 37 38 38 39 40 40 40 40 40 40 40 39 39 40 40 40 40 40 40 41 41 42 42 42 43
31 30 30 31 32 33 33 34 35 36 37 38 39 39 40 40 39 39 39 39 38 38 38 37 37 37 37 37 36 35 34 35 36 38 39 39 39 39 38 38 38 39 39 40 39 38 36 33 31 30 30 29 29 29 29 30 32 33 34 35 36 36 37 37 38 38 38 39 38 38 38 38 38 39 39 39 39 39 39 40 40 41 42 42 42 42
32 31 32 32 33 33 34 35 36 37 37 38 38 39 39 39 38 38 38 37 37 37 36 36 36 36 36 36 35 34 34 34 36 38 39 39 39 38 38 38 38 38 38 39 40 39 38 36 33 32 31 30 29 29 29 30 31 33 34 34 34 35 35 36 37 37 37 37 37 37 37 37 38 38 38 38 38 39 39 39 40 40 41 42 42 42
32 32 32 33 33 34 34 35 36 36 37 37 37 37 37 37 36 36 36 35 35 35 35 34 34 34 34 34 34 34 33 34 36 37 38 39 38 38 38 37 37 38 38 39 39 39 39 38 36 34 32 31 29 29 29 30 30 31 32 33 33 34 34 35 36 36 36 36 36 36 37 37 37 37 37 38 38 38 38 39 39 40 40 41 41 42
32 32 32 33 33 34 34 35 35 35 35 35 35 35 35 35 34 34 34 34 34 33 33 33 33 33 33 33 33 33 33 34 35 37 38 38 38 38 37 37 37 37 38 38 39 39 39 39 38 37 35 32 31 29 29 29 30 30 31 32 33 33 34 34 35 35 36 36 36 36 36 37 37 37 37 37 37 38 38 38 38 39 40 40 41 41
31 31 32 32 33 33 34 34 34 34 34 34 33 33 33 33 33 32 32 32 32 32 32 32 32 32 33 33 32 32 32 33 35 36 37 37 37 37 37 37 37 38 38 38 38 39 39 38 38 37 36 34 32 31 30 30 30 30 31 31 32 33 33 34 35 35 36 36 36 36 36 37 37 37 37 37 37 37 38 38 38 38 39 39 39 39
31 31 31 32 32 32 33 33 33 32 32 32 32 31 31 31 31 31 31 31 31 31 31 31 32 32 32 32 32 32 32 33 34 36 37 37 37 37 37 37 38 38 38 38 39 39 39 38 38 37 37 36 34 32 31 30 30 31 31 32 32 33 33 34 35 35 36 36 36 36 36 37 37 37 37 37 37 38 38 38 38 38 38 38 38 37
30 30 31 31 31 31 31 31 31 31 30 30 30 30 29 29 29 29 30 30 30 30 31 31 31 32 32 32 32 32 32 33 34 35 36 37 37 37 37 37 38 38 38 38 38 39 38 38 38 37 36 36 35 34 32 31 31 31 32 32 33 33 34 34 35 35 36 36 36 36 36 37 37 37 37 37 38 38 38 38 38 38 37 36 36 35
29 29 30 30 30 30 30 30 29 29 28 28 28 28 28 28 28 28 28 29 29 30 30 31 31 31 31 31 32 32 32 33 33 34 35 36 37 37 37 38 38 38 38 38 38 38 38 38 38 37 36 36 35 35 34 33 33 33 33 33 34 34 34 35 35 35 36 36 36 36 37 37 37 38 38 38 38 39 39 38 38 37 37 36 34 33
28 28 29 29 29 29 28 28 27 27 27 27 26 26 27 27 27 27 28 28 29 29 30 30 30 30 30 31 31 32 32 33 33 34 35 36 37 37 38 37 37 37 38 38 38 38 38 38 38 37 37 36 36 35 34 34 34 35 35 35 34 34 34 35 35 35 36 36 36 37 37 37 38 38 39 39 39 40 39 39 38 37 36 35 34 33
28 28 28 28 28 27 26 26 25 25 25 25 25 25 26 26 26 27 27 28 29 29 29 29 29 30 30 30 31 32 33 33 34 35 35 36 37 37 37 37 37 37 37 37 37 37 38 38 38 38 38 38 37 36 35 35 35 36 36 36 36 35 35 35 35 35 36 36 37 37 38 38 39 39 40 40 40 40 40 39 38 37 36 35 34 33
27 27 26 26 26 25 25 24 24 24 24 25 25 25 25 26 26 27 27 28 28 29 29 29 29 29 30 30 31 32 33 33 34 35 35 36 37 37 37 37 37 37 37 37 37 37 37 38 38 38 38 38 38 37 36 36 36 36 37 38 37 36 36 35 35 36 36 37 37 38 39 39 40 40 40 41 41 41 40 40 39 37 36 35 34 35
26 25 24 24 24 23 23 23 23 24 24 24 24 25 25 25 26 26 27 27 28 28 29 29 29 30 30 30 31 32 33 34 34 35 35 35 36 36 37 37 37 37 37 37 37 37 37 38 38 38 38 38 38 38 37 36 36 36 37 38 38 37 36 35 35 36 37 38 38 39 40 40 41 41 41 41 41 41 40 39 38 37 36 35 35 36
23 23 22 22 22 22 22 22 23 23 23 24 24 24 25 25 26 26 26 27 27 28 29 29 30 30 30 30 31 32 33 33 34 34 35 35 35 35 36 36 37 37 37 37 37 37 37 37 37 37 37 38 38 38 37 37 36 36 37 37 38 38 37 36 36 37 38 39 39 40 40 41 42 42 42 42 42 41 40 39 38 37 36 35 36 36
21 21 21 21 21 21 21 22 22 23 23 23 24 24 25 25 26 26 27 27 28 28 29 30 30 30 30 30 30 31 31 32 33 33 33 34 34 35 35 35 36 36 36 37 37 37 37 36 36 36 37 37 37 38 38 37 37 36 36 36 37 38 38 38 38 38 39 39 40 40 41 42 42 43 43 42 42 41 40 39 38 36 36 36 37 38
19 19 19 20 20 20 21 21 22 23 23 24 24 25 25 26 26 27 27 28 28 29 29 30 30 30 30 30 30 30 30 31 31 31 32 33 33 34 34 34 35 35 36 36 36 36 36 36 36 36 36 36 37 37 37 37 37 36 36 36 36 37 38 38 39 39 40 40 40 41 41 42 43 43 43 43 42 41 40 39 38 37 36 36 37 39
18 19 19 19 20 20 21 22 23 23 24 24 25 26 26 27 27 28 28 28 29 29 29 30 30 29 29 29 30 30 30 30 30 30 30 31 32 33 33 34 34 34 35 35 36 36 36 36 36 36 36 36 36 36 36 36 36 36 36 36 36 37 37 38 39 39 40 41 41 42 42 43 43 44 44 43 42 41 39 38 37 37 37 37 38 40
18 19 19 20 20 21 22 23 24 24 25 25 26 26 27 27 27 28 28 28 28 29 29 29 29 29 29 29 29 29 29 29 29 29 29 30 31 31 32 33 33 34 34 35 35 35 35 35 36 36 36 36 36 35 35 35 35 35 35 36 36 37 37 38 39 39 40 41 42 42 43 43 44 44 44 43 42 41 39 38 37 37 38 39 40 41
19 19 20 20 21 22 23 23 24 25 25 25 26 26 26 27 27 27 27 28 28 28 28 29 29 29 29 29 29 29 29 28 28 29 29 29 30 30 31 32 32 33 33 34 34 34 35 35 35 35 35 35 35 35 34 33 33 33 34 35 36 37 38 38 39 40 41 42 42 43 43 44 44 44 44 43 42 41 39 38 38 38 39 40 42 43
20 20 20 21 22 22 23 24 24 25 25 25 25 25 26 26 26 26 27 27 27 28 28 28 28 28 28 28 28 28 28 28 28 28 28 29 29 30 30 31 32 32 33 33 33 34 34 34 34 34 34 34 34 34 33 32 32 32 34 35 36 37 38 39 40 40 41 42 43 43 43 43 44 44 44 44 43 41 40 39 38 38 39 41 43 45
20 21 21 22 22 22 23 23 24 24 24 24 24 24 25 25 26 26 26 27 27 27 27 27 27 27 28 28 28 28 28 28 28 28 28 29 29 29 30 30 31 32 32 32 33 33 33 33 32 32 32 32 32 32 32 32 32 32 33 35 36 38 39 40 40 41 42 42 43 43 43 43 43 43 43 43 43 42 41 40 39 39 41 43 45 47
21 21 22 22 22 22 23 23 23 23 23 23 23 24 24 25 25 25 26 26 26 27 27 27 27 27 27 27 27 27 28 28 28 28 28 28 29 29 30 30 31 32 32 32 32 32 32 32 31 30 30 30 31 31 32 32 32 33 34 35 36 38 39 40 41 42 42 43 43 43 43 43 43 42 42 43 43 43 42 41 41 41 42 44 47 48
Wind_Direction
260 257 255 254 255 257 259 262 265 268 271 274 277 278 279 279 280 280 280 280 280 279 278 277 277 277 278 279 280 281 282 283 285 286 287 288 288 289 289 290 290 290 291 291 291 291 291 291 291 291 290 290 290 290 290 290 290 290 291 291 291 291 291 291 291 291 290 290 290 289 289 288 288 287 286 285 285 284 283 283 282 282 281 281 280 280
257 257 259 259 259 259 261 264 268 271 274 277 278 279 279 279 279 279 279 278 278 277 277 277 277 278 278 279 281 282 283 285 286 287 287 288 288 289 289 289 290 290 291 291 291 291 291 291 291 290 290 290 290 290 290 290 290 291 291 291 292 292 292 291 291 291 290 290 289 289 288 288 287 286 286 285 285 284 283 283 282 282 281 281 280 280
256 258 261 263 264 265 267 270 273 275 277 278 279 279 278 278 278 278 277 277 276 276 277 277 278 279 279 280 282 283 284 285 286 287 287 287 288 288 289 289 290 290 290 291 291 291 291 291 290 290 290 290 290 290 290 290 291 291 291 292 292 292 292 291 291 291 290 290 289 288 288 287 287 286 286 285 285 284 284 283 283 282 282 281 281 280
256 258 261 265 268 271 274 277 278 279 279 279 278 278 277 277 276 276 276 275 276 276 277 278 278 279 280 281 282 283 284 285 286 286 287 287 288 288 289 289 290 290 290 290 290 291 291 290 290 290 290 290 290 290 291 291 291 292 292 292 292 292 292 291 291 290 290 289 289 288 287 287 286 286 285 285 285 284 284 283 283 282 282 281 281 280
258 260 263 268 273 276 278 280 280 280 279 278 277 277 276 275 275 274 274 275 276 276 277 278 278 279 280 281 282 283 284 285 286 286 287 287 288 288 289 289 289 290 290 290 290 290 290 290 290 291 291 291 291 291 291 292 292 292 292 292 292 292 292 291 291 290 290 289 289 288 287 287 286 286 285 285 284 284 284 283 283 282 282 281 281 280
260 262 266 271 275 277 279 279 279 278 278 277 276 275 275 274 274 273 274 275 276 277 278 278 279 279 280 281 282 283 284 285 286 287 287 288 288 289 289 289 289 289 290 290 290 290 291 291 291 291 291 291 292 292 292 292 293 293 293 293 293 292 292 292 291 291 290 290 289 288 288 287 287 286 286 285 284 284 283 283 283 282 282 281 281 281
260 263 267 271 273 275 276 276 276 276 275 276 276 275 275 274 273 273 274 275 276 277 278 279 279 280 280 281 282 284 284 285 286 287 288 288 288 289 289 289 289 289 290 290 290 290 291 291 291 291 291 292 292 292 293 293 293 293 293 293 293 293 293 292 292 291 291 290 290 289 289 288 288 287 286 286 285 284 284 283 283 283 282 282 281 281
261 264 267 270 272 273 273 273 273 273 274 276 277 277 276 275 274 274 275 276 277 278 279 279 280 280 280 281 282 283 284 286 287 287 288 288 288 289 289 289 289 289 290 290 290 290 291 291 291 291 292 292 292 293 293 293 293 293 294 293 293 293 293 292 292 292 291 291 290 290 289 289 288 287 287 286 285 285 284 284 284 283 283 282 282 281
263 265 267 269 270 271 271 270 270 271 273 276 277 278 277 276 275 274 275 276 277 278 279 279 279 280 280 280 281 283 284 286 287 288 289 289 289 289 289 289 289 289 290 290 290 291 291 291 291 292 292 293 293 293 293 293 294 294 293 293 293 293 293 292 292 292 291 291 290 290 289 289 288 287 287 286 286 285 285 285 284 283 283 282 282 281
264 266 267 268 269 269 268 268 269 271 273 275 276 276 276 275 274 273 274 275 276 277 279 279 279 280 280 280 281 283 284 286 287 288 289 289 289 289 289 289 289 290 290 291 291 292 292 292 292 293 293 293 293 293 293 294 293 293 293 293 293 293 293 292 292 291 291 291 290 290 289 289 288 288 287 287 287 286 285 285 284 283 283 282 281 281
266 267 268 269 269 268 267 267 269 271 273 274 275 276 276 274 273 272 271 272 274 276 278 279 279 280 280 281 282 284 285 286 287 288 289 289 289 289 289 289 290 290 291 291 292 292 292 293 293 293 293 293 294 294 294 294 294 294 294 294 294 294 294 293 293 292 292 291 291 290 290 290 289 289 288 288 287 286 286 285 284 284 283 282 282 281
268 268 268 268 269 268 268 269 270 272 274 276 277 277 277 275 273 271 270 271 273 275 277 278 279 280 281 282 283 284 285 286 287 287 288 288 289 289 289 290 290 291 291 292 292 293 293 293 293 293 294 294 294 295 295 295 295 295 296 296 296 295 295 295 294 294 293 293 292 292 291 291 290 290 289 288 288 287 286 286 285 284 284 283 283 282
267 266 266 266 266 267 269 271 273 275 277 278 278 277 277 275 272 270 269 271 273 275 277 278 279 280 281 282 284 284 285 286 286 287 287 288 288 289 290 290 291 291 292 293 293 294 294 294 294 295 295 296 296 296 296 297 297 297 297 298 297 297 297 296 296 295 295 294 294 293 293 292 291 290 290 289 288 288 287 286 286 285 285 284 284 283
267 266 265 263 264 266 268 271 273 275 277 277 278 277 276 274 272 270 270 271 273 275 276 277 279 281 283 284 284 285 285 285 286 286 287 287 288 289 290 290 291 292 292 293 294 294 294 295 295 296 296 297 297 298 298 298 298 299 299 299 298 298 297 297 297 296 296 295 294 294 293 293 292 291 290 289 289 288 287 287 286 286 285 285 284 284
271 270 268 265 263 264 266 269 271 272 274 276 277 277 277 276 274 273 272 273 274 275 277 278 280 282 284 285 285 285 285 285 285 286 286 287 288 289 290 290 291 291 292 293 293 294 294 295 295 296 297 297 298 298 298 299 299 299 299 299 299 298 298 297 297 296 296 295 295 294 294 293 293 292 291 290 290 289 288 288 287 286 286 285 285 284
276 276 272 267 263 261 263 265 267 269 272 274 276 278 279 279 278 277 276 276 276 278 280 281 282 283 285 285 285 285 285 285 286 286 287 288 288 289 290 290 290 291 291 292 292 293 293 294 295 296 296 297 297 298 298 299 299 299 299 298 298 298 297 297 296 296 296 295 295 295 294 294 293 293 292 292 291 291 290 289 289 288 287 287 286 286
278 278 274 267 261 258 259 262 265 268 271 274 276 278 279 280 280 280 279 279 280 281 282 282 282 282 283 284 285 285 285 286 286 286 287 287 288 289 289 290 290 290 291 291 292 292 293 293 294 295 296 296 297 297 298 298 298 298 298 297 297 297 296 296 295 295 295 295 294 294 294 294 294 293 293 293 292 292 291 291 290 290 289 289 288 287
277 276 273 268 263 260 261 264 267 270 272 274 276 277 279 280 280 280 280 281 281 282 282 282 281 281 282 284 285 285 285 286 286 286 287 287 288 288 289 289 290 290 291 291 291 291 292 293 294 295 296 296 296 297 297 297 297 297 297 296 296 295 295 294 294 294 294 294 293 293 293 293 293 293 293 293 293 292 292 292 292 291 291 290 290 289
275 274 273 271 270 271 272 273 274 274 275 276 276 277 277 278 278 278 279 279 280 281 281 281 282 283 284 285 286 286 287 287 287 287 287 288 288 289 289 289 290 290 290 290 291 291 292 293 294 295 296 296 296 297 297 297 297 296 296 295 294 294 293 293 293 293 293 292 292 292 292 292 292 292 293 293 293 293 293 292 292 292 292 291 291 290
271 271 272 274 277 279 280 279 279 279 278 278 278 278 278 277 277 277 277 278 279 279 281 282 284 285 286 287 287 287 288 288 288 288 288 289 289 289 289 290 290 290 290 290 290 291 292 293 294 295 296 296 296 296 296 296 296 295 295 294 293 293 292 292 292 292 292 292 292 292 292 292 292 292 292 292 292 293 293 292 292 292 292 291 290 290
268 269 272 275 278 279 280 280 280 281 281 280 280 279 279 279 278 278 278 279 280 282 283 285 286 287 288 288 288 289 289 289 289 288 289 289 290 290 290 290 289 289 289 290 290 291 292 293 294 295 295 296 296 296 296 295 294 294 293 292 292 292 292 292 292 292 292 292 292 292 292 292 292 292 292 293 293 293 293 292 292 292 291 290 290 289
268 270 274 276 277 276 277 278 279 280 280 280 280 280 280 280 280 281 281 282 284 285 286 287 288 288 289 289 289 289 290 290 289 289 289 290 290 290 290 289 289 289 289 289 291 292 292 293 294 295 295 295 295 295 294 293 292 291 291 290 290 290 290 291 291 291 291 292 292 292 292 292 293 293 293 294 294 294 293 293 292 291 291 290 289 288
270 274 277 278 277 275 274 275 277 278 278 279 280 280 281 282 282 283 284 285 286 287 288 288 288 288 289 289 289 289 290 290 290 290 290 290 290 290 289 289 288 288 289 290 291 292 293 294 294 295 295 295 294 293 293 291 290 289 288 288 288 288 289 289 290 290 290 291 291 292 292 293 293 294 294 295 295 294 294 293 292 292 291 290 289 289
271 275 278 278 276 274 274 275 276 277 278 279 280 280 281 282 283 284 286 287 287 288 288 288 288 288 288 289 289 289 290 290 291 291 291 290 290 290 289 289 288 288 289 290 292 292 293 294 294 294 294 294 293 292 290 289 288 287 286 286 286 286 287 287 288 288 289 289 290 291 292 292 293 294 294 295 294 294 294 293 293 292 292 291 290 290
270 273 275 275 274 274 275 276 277 277 278 279 280 281 282 283 284 285 287 287 288 288 288 288 288 288 288 289 289 290 290 290 291 290 290 290 289 289 289 289 289 289 290 291 292 293 294 294 294 294 293 292 291 290 288 286 285 285 284 284 285 285 285 286 286 287 287 288 289 290 291 292 293 293 294 294 294 294 293 293 293 293 292 292 292 292
268 268 269 270 271 273 276 277 278 279 280 280 281 282 283 284 285 286 287 288 288 288 287 287 287 288 288 289 289 290 290 290 290 289 289 289 289 289 289 289 290 290 291 292 293 293 294 294 294 293 292 291 289 288 286 284 283 283 283 283 284 284 284 285 285 286 287 288 289 290 291 292 293 293 293 293 293 293 293 294 293 293 293 293 293 293
264 263 264 266 270 274 276 278 279 280 282 282 283 284 284 285 286 286 287 287 287 287 287 287 288 288 288 288 289 289 289 289 289 288 288 288 288 289 289 290 291 291 292 293 293 293 294 294 293 292 291 289 288 286 285 283 283 282 282 282 283 283 284 285 285 286 287 288 289 290 291 292 293 293 293 293 293 294 294 294 294 294 293 293 293 293
262 260 262 266 271 275 277 279 280 282 283 284 285 285 285 286 286 287 287 287 287 287 287 288 288 289 289 288 288 288 288 288 288 288 288 288 288 289 290 291 292 293 293 293 293 293 294 294 293 292 291 289 288 286 284 283 282 282 282 282 283 283 284 285 286 287 288 289 290 291 292 292 293 293 293 294 294 294 294 294 294 294 294 294 294 294
267 266 268 271 274 277 278 280 282 283 284 285 285 286 286 286 287 287 287 287 287 288 288 289 289 289 289 289 288 288 289 289 288 288 288 288 289 290 292 293 294 294 294 294 294 293 294 294 294 292 291 289 288 286 285 284 283 282 282 282 283 284 285 286 287 288 289 290 291 291 292 293 293 294 294 294 294 295 295 295 295 295 295 295 295 295
276 276 276 277 278 279 280 282 283 284 285 285 286 286 286 287 287 288 288 288 289 289 289 290 290 289 289 289 289 289 289 290 289 289 289 289 290 291 293 294 295 296 296 295 295 294 294 294 293 293 291 290 289 288 287 285 284 283 283 283 284 285 286 287 288 288 289 290 291 292 292 293 294 294 294 295 295 295 295 296 296 295 295 295 295 295
281 281 281 280 281 281 282 283 284 285 285 286 286 286 286 287 287 288 288 289 290 290 290 290 290 290 290 290 290 290 291 291 290 290 290 291 292 293 294 295 296 297 297 297 297 297 296 295 294 293 293 292 291 290 289 287 285 284 283 283 284 285 286 287 288 288 289 290 291 292 293 293 294 294 295 295 295 296 296 296 296 296 296 296 296 296
281 281 281 281 282 282 283 284 285 285 285 285 286 286 286 287 287 288 289 289 290 290 290 290 290 290 290 290 291 292 292 292 292 291 291 292 293 295 296 297 297 297 297 297 298 298 298 297 296 295 294 294 293 291 289 287 285 284 284 285 285 286 287 288 288 289 290 291 292 293 293 294 294 295 295 295 296 296 296 296 297 297 297 297 297 297
283 283 283 283 283 284 284 284 284 285 285 285 285 286 286 287 287 288 288 289 289 289 289 290 290 290 290 291 292 293 293 293 292 292 292 293 295 296 297 297 297 297 297 297 298 298 299 299 299 298 297 296 294 292 290 288 287 286 287 287 288 288 289 289 290 291 292 292 293 294 294 294 294 295 295 295 296 296 296 297 297 298 298 298 298 298
284 284 284 284 284 284 284 284 284 284 285 285 285 286 286 287 287 288 288 289 289 289 290 290 290 290 291 291 292 293 294 293 293 292 293 294 295 296 297 298 298 298 298 298 298 298 299 300 300 300 299 298 296 295 293 291 290 290 291 291 292 292 292 292 293 293 294 294 295 295 295 295 295 295 295 296 296 296 297 298 299 299 300 300 300 299
284 284 284 284 284 284 284 284 284 285 285 285 286 286 287 288 288 289 289 289 290 290 290 291 291 291 291 292 293 293 294 293 293 293 294 295 296 297 298 298 298 298 298 298 299 299 299 300 300 300 300 299 298 297 296 296 295 295 295 295 296 296 296 296 296 296 296 296 296 296 296 296 295 296 296 296 297 298 299 300 301 301 301 301 301 300
283 283 284 284 284 284 284 284 284 285 285 286 287 287 288 289 289 289 290 290 291 291 292 292 292 293 293 293 294 294 294 294 294 294 295 296 297 298 298 299 299 299 299 299 299 299 300 300 300 301 301 301 300 299 299 298 299 299 299 299 299 299 299 299 299 298 298 298 297 297 297 297 297 297 298 298 299 300 301 302 303 303 302 301 300 300
283 283 284 284 284 284 284 284 285 285 286 286 287 288 289 289 290 290 291 291 292 293 293 293 293 293 294 294 295 295 295 295 295 295 296 297 297 298 299 299 299 299 299 300 300 300 300 300 301 301 301 302 302 303 302 302 302 302 302 302 302 302 302 301 301 300 300 299 299 298 298 299 299 299 300 301 302 303 303 304 304 303 302 300 299 298
282 283 283 283 284 284 284 284 285 286 286 287 288 289 289 290 290 291 292 293 293 293 293 293 293 294 295 295 296 296 296 296 296 296 296 297 298 298 299 299 299 300 300 300 301 301 301 302 302 302 303 303 304 305 306 307 307 306 305 305 304 304 304 303 302 302 301 300 300 300 300 301 301 302 303 304 304 305 305 305 304 303 301 299 298 296
281 282 283 283 283 284 284 285 286 287 287 288 289 289 290 291 293 293 294 294 294 293 293 293 294 295 295 296 297 297 297 297 297 297 297 298 298 298 299 299 299 300 300 301 301 302 303 303 304 305 306 306 307 307 308 310 310 309 308 306 305 305 304 304 303 303 302 302 302 302 303 303 304 305 305 306 306 307 306 306 304 303 301 298 296 295
281 282 283 283 284 285 286 286 287 288 288 289 290 291 292 293 294 294 294 294 294 294 294 294 295 296 297 297 298 298 298 298 298 298 298 298 298 299 299 300 300 300 301 302 303 303 304 305 306 307 308 309 309 310 311 312 312 311 309 308 306 306 305 305 305 304 304 304 304 305 305 306 306 307 307 308 308 308 307 306 305 303 301 298 297 295
283 284 284 284 285 286 287 288 289 289 290 291 292 293 293 294 294 294 294 294 294 295 295 296 297 297 298 298 298 298 298 298 298 298 298 299 299 299 300 301 301 302 303 303 304 305 306 307 307 308 309 310 310 311 312 313 313 312 310 309 308 307 306 307 307 306 306 306 307 307 308 308 308 309 309 309 309 308 307 306 305 303 301 299 298 297
283 284 285 286 287 288 289 290 291 291 292 293 293 293 293 293 293 293 293 294 295 295 296 297 297 297 298 298 298 298 298 298 299 299 299 299 300 300 301 302 303 303 304 305 305 306 307 307 308 309 310 310 311 311 312 312 312 312 311 310 309 308 307 308 308 308 308 308 309 309 309 309 310 310 310 309 309 308 307 306 305 303 302 300 299 299
283 285 286 287 288 289 291 292 293 293 294 294 294 294 293 293 294 294 295 295 295 296 296 297 297 297 298 298 298 298 299 299 299 300 300 300 301 301 302 303 303 304 304 305 305 306 306 307 308 309 310 311 311 312 312 312 312 312 311 311 310 310 309 309 309 309 309 310 310 310 310 310 310 310 310 310 309 309 307 306 305 303 302 301 301 301
285 286 287 288 290 292 293 294 294 295 295 295 295 295 295 295 295 296 296 297 297 297 297 297 297 298 298 298 298 298 298 298 299 300 300 300 301 301 301 302 302 303 304 304 305 305 306 307 308 309 310 311 311 312 312 313 312 312 312 311 311 311 311 311 311 311 310 310 310 311 311 311 310 310 310 310 310 309 308 307 305 304 303 302 303 303
288 289 290 291 292 294 295 296 296 297 297 297 296 296 296 296 297 297 297 297 297 297 297 297 297 298 298 298 298 297 297 297 298 299 299 299 300 300 300 301 302 302 303 304 304 305 306 307 308 309 310 311 311 312 313 313 313 312 312 312 311 311 311 311 311 311 311 311 311 311 311 311 311 311 311 311 310 309 308 307 306 305 304 304 304 304
290 291 292 294 295 296 297 298 297 297 297 297 297 296 296 297 297 297 297 297 297 297 297 297 298 298 298 298 298 298 298 298 298 298 298 299 299 299 300 301 301 302 303 304 304 306 307 308 309 310 311 311 312 313 313 313 313 313 312 312 311 311 311 311 311 311 311 311 311 312 312 313 312 312 312 311 310 309 309 308 307 306 305 305 305 305
292 293 294 295 296 297 297 296 295 295 295 296 296 296 296 296 297 297 297 297 297 298 298 299 299 299 299 299 299 299 299 299 299 299 299 299 299 299 300 301 301 302 303 304 305 306 307 308 310 311 312 312 312 313 313 313 313 313 312 312 311 310 310 310 310 311 311 312 313 313 314 314 314 313 313 312 311 310 309 308 307 307 307 306 306 306
292 293 293 294 294 294 293 293 293 293 293 294 295 295 296 296 297 297 298 298 298 299 299 300 300 300 300 300 301 301 301 301 301 301 301 300 300 301 301 301 302 302 303 304 305 306 307 309 310 311 312 312 312 312 313 313 312 312 312 311 310 310 310 311 311 312 312 313 314 315 316 316 316 315 314 312 311 310 309 308 308 308 307 307 307 307
291 291 291 291 290 290 290 290 291 292 293 294 295 296 297 297 298 298 299 299 299 300 300 300 300 301 301 302 302 303 303 304 304 304 303 303 303 303 302 302 302 303 303 304 305 306 307 308 310 311 311 312 312 312 312 313 313 312 312 311 311 311 311 312 312 313 314 315 316 316 317 317 317 316 315 313 312 311 310 309 308 308 308 308 308 308
290 290 289 289 289 290 290 291 292 293 294 296 297 298 298 299 299 299 300 300 300 300 301 301 301 302 303 304 304 305 306 306 306 306 306 305 305 304 303 303 303 303 303 304 305 306 307 308 309 311 312 312 312 313 313 314 314 313 313 313 312 312 313 313 314 314 315 316 317 318 318 318 317 316 315 313 312 310 310 309 309 310 310 309 309 309
289 289 289 289 290 291 292 293 294 295 297 298 299 300 300 300 300 300 300 300 300 301 302 302 303 304 305 306 307 307 308 308 308 307 307 306 305 305 304 304 304 304 305 305 306 307 308 309 309 311 312 313 314 315 316 317 316 315 314 313 313 314 314 314 315 316 317 318 318 319 319 318 317 316 314 313 311 310 310 310 310 311 311 311 311 311
Height
3068 3067 3066 3065 3065 3065 3064 3065 3065 3066 3065 3064 3064 3064 3064 3063 3063 3063 3062 3062 3061 3061 3060 3059 3059 3059 3058 3058 3057 3057 3056 3055 3055 3054 3053 3052 3052 3051 3050 3049 3049 3048 3047 3046 3045 3044 3043 3042 3041 3040 3039 3038 3038 3037 3036 3035 3034 3033 3032 3031 3029 3028 3027 3026 3025 3023 3022 3021 3020 3019 3018 3017 3016 3015 3014 3013 3012 3012 3011 3010 3010 3009 3008 3008 3007 3007
3064 3062 3061 3061 3061 3061 3061 3061 3062 3062 3062 3061 3061 3061 3061 3060 3060 3059 3059 3059 3058 3057 3057 3057 3056 3056 3056 3055 3054 3054 3053 3052 3052 3051 3050 3049 3049 3048 3047 3046 3045 3044 3043 3042 3042 3041 3040 3039 3038 3037 3036 3035 3034 3033 3032 3031 3030 3029 3028 3027 3026 3024 3023 3022 3021 3019 3018 3017 3016 3015 3014 3013 3012 3011 3010 3009 3008 3008 3007 3006 3006 3005 3004 3004 3003 3003
3060 3059 3058 3058 3058 3058 3057 3057 3058 3058 3058 3057 3057 3057 3057 3057 3057 3056 3056 3055 3055 3054 3054 3054 3053 3053 3052 3052 3052 3051 3050 3049 3048 3048 3047 3046 3046 3045 3044 3043 3042 3041 3040 3039 3038 3037 3036 3035 3034 3033 3032 3032 3031 3030 3029 3027 3027 3025 3024 3023 3022 3020 3019 3018 3017 3016 3014 3013 3012 3011 3010 3009 3008 3007 3006 3005 3005 3004 3003 3002 3002 3001 3001 3000 2999 2999
3057 3057 3055 3055 3055 3055 3054 3054 3054 3054 3054 3054 3054 3053 3054 3054 3053 3053 3052 3052 3052 3051 3051 3051 3051 3050 3049 3049 3048 3048 3047 3046 3045 3045 3044 3043 3042 3042 3041 3040 3039 3038 3037 3036 3035 3034 3033 3032 3031 3030 3029 3028 3027 3026 3025 3024 3023 3022 3020 3019 3018 3017 3015 3014 3013 3012 3011 3009 3008 3007 3006 3005 3004 3003 3002 3002 3001 3000 2999 2998 2998 2997 2997 2996 2996 2995
3054 3053 3052 3052 3051 3051 3051 3051 3051 3051 3051 3051 3050 3050 3050 3050 3050 3049 3049 3049 3049 3048 3048 3048 3047 3047 3047 3046 3045 3045 3044 3043 3042 3041 3041 3040 3039 3038 3037 3036 3035 3034 3033 3032 3031 3030 3029 3028 3027 3026 3025 3024 3023 3022 3021 3020 3019 3017 3016 3015 3014 3012 3011 3010 3009 3008 3007 3005 3004 3003 3002 3002 3001 3000 2999 2998 2997 2996 2996 2995 2994 2993 2993 2992 2992 2992
3050 3050 3049 3048 3048 3047 3047 3048 3048 3047 3047 3047 3047 3047 3047 3047 3047 3046 3046 3046 3046 3045 3045 3045 3044 3044 3043 3043 3042 3042 3041 3040 3039 3038 3037 3037 3036 3035 3034 3033 3032 3031 3030 3029 3027 3027 3025 3024 3023 3022 3022 3020 3019 3018 3017 3016 3015 3013 3012 3011 3010 3008 3007 3006 3005 3004 3002 3002 3000 2999 2998 2997 2997 2996 2995 2994 2993 2992 2992 2991 2990 2990 2989 2988 2988 2988
3047 3047 3047 3046 3045 3045 3045 3045 3045 3045 3045 3044 3044 3044 3044 3044 3044 3043 3043 3043 3043 3042 3042 3042 3041 3041 3040 3040 3039 3038 3037 3037 3036 3035 3034 3033 3032 3031 3030 3029 3028 3027 3026 3025 3024 3023 3022 3021 3020 3019 3018 3017 3016 3014 3013 3012 3011 3009 3008 3007 3006 3004 3003 3002 3001 3000 2998 2997 2997 2996 2995 2994 2993 2992 2991 2990 2990 2989 2988 2987 2987 2986 2986 2985 2984 2984
3043 3043 3043 3043 3042 3042 3042 3042 3042 3042 3042 3041 3041 3040 3041 3041 3041 3040 3040 3040 3040 3039 3039 3038 3038 3037 3037 3036 3035 3035 3034 3033 3032 3032 3031 3030 3029 3028 3027 3026 3025 3024 3022 3022 3020 3019 3018 3017 3016 3015 3014 3013 3012 3011 3009 3008 3007 3006 3004 3003 3002 3000 2999 2998 2997 2996 2995 2994 2993 2992 2991 2990 2989 2988 2987 2987 2986 2985 2985 2984 2983 2983 2982 2982 2981 2981
3041 3040 3040 3040 3040 3039 3038 3038 3038 3039 3039 3038 3038 3037 3037 3037 3037 3037 3037 3037 3037 3036 3036 3035 3035 3034 3033 3033 3032 3031 3030 3030 3029 3028 3027 3027 3025 3024 3023 3022 3021 3020 3019 3017 3016 3015 3014 3013 3012 3011 3010 3009 3008 3007 3006 3004 3003 3002 3000 2999 2998 2997 2996 2995 2993 2992 2991 2990 2989 2988 2987 2986 2986 2985 2984 2983 2982 2982 2981 2981 2980 2979 2979 2978 2978 2977
3038 3037 3037 3037 3036 3036 3036 3035 3034 3035 3036 3036 3035 3034 3033 3034 3034 3034 3034 3033 3033 3033 3032 3032 3031 3031 3030 3029 3028 3028 3027 3026 3026 3025 3024 3023 3022 3021 3020 3019 3017 3016 3015 3014 3012 3011 3010 3009 3008 3007 3006 3005 3004 3003 3002 3000 2999 2998 2997 2995 2994 2993 2992 2991 2990 2989 2988 2987 2986 2985 2984 2983 2982 2981 2980 2980 2979 2978 2977 2977 2977 2976 2975 2975 2974 2974
3034 3034 3034 3034 3033 3033 3033 3032 3032 3031 3032 3032 3031 3030 3030 3030 3030 3030 3030 3030 3029 3029 3029 3029 3028 3027 3026 3025 3025 3024 3024 3023 3022 3021 3020 3020 3018 3017 3016 3015 3014 3012 3011 3010 3008 3007 3006 3005 3004 3003 3002 3001 3000 2999 2997 2997 2995 2994 2993 2992 2991 2989 2988 2987 2986 2985 2984 2983 2982 2981 2980 2979 2978 2978 2977 2976 2975 2975 2974 2973 2973 2972 2972 2971 2971 2970
3032 3032 3032 3031 3030 3030 3030 3029 3029 3028 3028 3028 3028 3027 3027 3027 3027 3027 3026 3026 3025 3026 3026 3025 3025 3024 3023 3022 3021 3021 3020 3020 3019 3018 3017 3016 3014 3013 3012 3011 3010 3008 3007 3006 3005 3003 3002 3002 3001 2999 2998 2997 2996 2995 2993 2992 2991 2990 2988 2987 2986 2985 2984 2983 2982 2981 2980 2979 2978 2977 2977 2976 2975 2974 2973 2973 2972 2971 2971 2970 2969 2969 2968 2968 2967 2967
3029 3028 3028 3028 3027 3027 3027 3026 3026 3025 3025 3025 3025 3024 3024 3023 3023 3023 3023 3022 3022 3022 3022 3022 3021 3020 3019 3019 3018 3017 3017 3016 3016 3015 3014 3012 3011 3009 3008 3007 3006 3004 3003 3002 3001 2999 2998 2997 2996 2995 2994 2993 2992 2990 2989 2988 2987 2986 2984 2983 2982 2981 2980 2979 2978 2977 2976 2975 2974 2974 2973 2972 2972 2971 2970 2969 2968 2968 2967 2967 2966 2965 2965 2964 2963 2963
3025 3025 3025 3024 3024 3023 3023 3023 3022 3022 3022 3022 3022 3022 3021 3020 3020 3020 3020 3019 3019 3019 3019 3019 3018 3017 3016 3015 3015 3014 3013 3012 3012 3011 3011 3009 3007 3006 3005 3004 3002 3001 3000 2999 2997 2995 2994 2994 2993 2991 2990 2989 2987 2986 2985 2984 2982 2982 2980 2979 2978 2977 2976 2975 2974 2973 2972 2971 2971 2970 2969 2968 2968 2967 2967 2966 2965 2965 2964 2963 2962 2962 2961 2960 2960 2959
3022 3022 3021 3020 3020 3020 3020 3020 3020 3019 3018 3018 3019 3019 3018 3017 3017 3017 3017 3016 3015 3015 3016 3015 3014 3013 3012 3012 3011 3011 3010 3009 3008 3008 3007 3006 3004 3002 3002 3001 2999 2997 2996 2996 2994 2992 2991 2990 2990 2988 2987 2985 2984 2982 2981 2980 2979 2978 2977 2976 2974 2973 2972 2971 2970 2969 2968 2967 2967 2966 2965 2965 2964 2963 2963 2962 2962 2961 2960 2960 2959 2958 2957 2957 2956 2955
3019 3019 3017 3017 3016 3016 3017 3017 3017 3016 3015 3015 3015 3015 3015 3014 3014 3014 3013 3013 3012 3012 3012 3012 3011 3010 3009 3008 3007 3007 3007 3005 3004 3004 3004 3003 3001 2999 2998 2998 2996 2994 2993 2993 2992 2990 2988 2987 2987 2985 2984 2982 2981 2980 2978 2977 2976 2975 2974 2972 2971 2970 2969 2968 2967 2966 2965 2964 2963 2962 2962 2961 2960 2960 2959 2958 2958 2957 2957 2956 2955 2954 2953 2952 2952 2951
3016 3016 3015 3014 3013 3013 3013 3013 3013 3013 3012 3012 3012 3012 3012 3012 3011 3011 3010 3009 3009 3008 3008 3008 3008 3007 3007 3005 3004 3003 3003 3002 3000 3000 3000 3000 2998 2996 2995 2995 2993 2991 2990 2990 2989 2987 2986 2985 2984 2982 2981 2980 2978 2977 2976 2974 2973 2972 2971 2969 2968 2967 2966 2965 2963 2962 2962 2961 2960 2959 2958 2957 2957 2956 2955 2955 2954 2953 2952 2952 2951 2950 2949 2948 2947 2947
3013 3013 3012 3011 3011 3010 3010 3010 3010 3010 3009 3009 3008 3008 3008 3008 3008 3007 3007 3006 3006 3005 3005 3005 3004 3004 3003 3002 3000 2999 2999 2999 2997 2996 2996 2997 2996 2993 2992 2991 2990 2988 2987 2987 2986 2985 2983 2982 2981 2980 2978 2977 2976 2974 2973 2972 2970 2969 2967 2966 2965 2964 2963 2962 2961 2959 2958 2957 2957 2956 2955 2954 2953 2952 2952 2951 2950 2949 2948 2947 2947 2946 2945 2944 2943 2942
3010 3010 3010 3009 3008 3008 3007 3007 3007 3007 3006 3006 3005 3005 3005 3005 3005 3005 3004 3003 3003 3002 3002 3001 3001 3000 3000 2999 2997 2996 2995 2996 2994 2992 2992 2992 2992 2991 2989 2988 2987 2986 2985 2984 2983 2982 2981 2980 2978 2977 2976 2974 2973 2971 2970 2969 2967 2966 2965 2963 2962 2961 2960 2958 2957 2956 2955 2954 2953 2952 2952 2951 2950 2949 2948 2947 2947 2946 2945 2944 2943 2942 2941 2940 2939 2938
3007 3007 3007 3007 3006 3006 3005 3005 3004 3004 3003 3002 3002 3002 3002 3002 3002 3002 3001 3001 3000 2999 2998 2998 2997 2996 2995 2995 2993 2992 2992 2992 2990 2989 2988 2989 2989 2987 2986 2985 2984 2983 2982 2981 2980 2979 2978 2977 2976 2974 2973 2972 2970 2968 2967 2966 2964 2963 2962 2960 2959 2957 2957 2955 2954 2953 2952 2951 2950 2949 2948 2947 2947 2946 2945 2944 2943 2942 2941 2940 2939 2938 2937 2936 2935 2934
3004 3003 3003 3003 3003 3003 3002 3002 3002 3001 3001 3000 3000 2999 2999 2999 2999 2998 2998 2997 2997 2996 2995 2994 2993 2992 2992 2991 2990 2989 2988 2988 2987 2985 2984 2985 2985 2984 2982 2982 2981 2980 2979 2978 2978 2977 2976 2974 2973 2972 2970 2969 2967 2966 2965 2963 2962 2960 2959 2957 2956 2955 2953 2952 2951 2950 2949 2948 2947 2946 2945 2944 2943 2942 2941 2940 2939 2938 2937 2936 2935 2934 2933 2932 2931 2930
3001 3000 3000 3000 3001 3000 2999 2999 2999 2999 2998 2998 2997 2997 2996 2996 2996 2995 2994 2994 2993 2992 2991 2990 2990 2989 2988 2988 2987 2986 2984 2984 2983 2982 2981 2981 2981 2981 2979 2978 2977 2977 2976 2976 2975 2974 2973 2971 2970 2969 2967 2966 2965 2963 2962 2961 2959 2957 2956 2955 2953 2952 2951 2949 2948 2947 2946 2944 2943 2942 2941 2940 2939 2938 2937 2936 2935 2934 2933 2932 2931 2930 2929 2928 2927 2927
2997 2997 2997 2998 2998 2997 2997 2997 2996 2996 2996 2995 2994 2994 2993 2993 2993 2992 2991 2991 2990 2989 2988 2987 2987 2986 2986 2985 2984 2982 2981 2980 2979 2978 2977 2977 2977 2977 2976 2975 2974 2973 2973 2973 2972 2971 2970 2969 2967 2966 2965 2963 2962 2961 2959 2958 2957 2955 2953 2952 2951 2949 2948 2947 2945 2944 2942 2941 2940 2939 2937 2936 2935 2934 2933 2932 2931 2930 2929 2928 2927 2926 2925 2924 2923 2922
2994 2994 2994 2995 2995 2995 2994 2994 2993 2993 2993 2992 2992 2991 2990 2990 2990 2989 2988 2987 2987 2986 2985 2984 2984 2983 2982 2982 2981 2980 2978 2977 2976 2975 2973 2973 2973 2973 2972 2972 2971 2970 2970 2970 2969 2968 2967 2966 2965 2963 2962 2961 2960 2958 2957 2955 2954 2952 2951 2949 2948 2947 2946 2944 2942 2941 2940 2938 2937 2936 2934 2933 2932 2931 2930 2929 2928 2927 2925 2924 2923 2922 2921 2920 2919 2918
2991 2991 2992 2992 2992 2992 2991 2991 2991 2990 2990 2989 2988 2988 2987 2987 2987 2986 2985 2984 2983 2983 2982 2981 2981 2980 2979 2979 2978 2977 2975 2974 2973 2972 2970 2970 2969 2969 2969 2968 2967 2966 2966 2966 2966 2965 2964 2963 2962 2961 2960 2958 2957 2956 2954 2953 2951 2950 2948 2947 2946 2944 2943 2941 2940 2938 2937 2935 2934 2932 2931 2930 2929 2928 2927 2925 2924 2923 2922 2921 2919 2918 2917 2916 2915 2914
2988 2988 2989 2990 2989 2989 2988 2988 2987 2987 2987 2986 2986 2985 2985 2984 2984 2983 2982 2982 2981 2980 2979 2978 2977 2977 2977 2976 2975 2974 2972 2972 2970 2969 2967 2966 2966 2966 2965 2965 2963 2963 2962 2962 2962 2962 2961 2960 2959 2958 2957 2956 2954 2953 2952 2950 2949 2947 2946 2944 2943 2942 2940 2938 2937 2935 2934 2932 2931 2930 2928 2927 2926 2925 2923 2922 2921 2920 2918 2917 2916 2914 2913 2912 2911 2910
2985 2985 2986 2986 2986 2986 2985 2985 2984 2984 2983 2983 2982 2982 2982 2981 2981 2980 2979 2978 2977 2976 2975 2975 2974 2974 2973 2973 2972 2971 2970 2969 2967 2966 2965 2963 2962 2962 2962 2961 2960 2959 2959 2959 2959 2959 2958 2957 2957 2956 2954 2953 2952 2951 2949 2948 2946 2945 2943 2942 2940 2938 2937 2935 2934 2932 2930 2929 2928 2927 2925 2924 2922 2921 2920 2919 2917 2916 2915 2913 2912 2911 2909 2908 2907 2907
2982 2982 2982 2983 2983 2983 2982 2982 2982 2981 2980 2980 2979 2979 2978 2978 2977 2977 2976 2975 2974 2973 2972 2972 2971 2970 2970 2970 2969 2968 2967 2966 2965 2963 2962 2960 2959 2959 2959 2958 2957 2956 2955 2955 2955 2955 2955 2954 2953 2952 2952 2950 2949 2948 2947 2945 2944 2942 2941 2939 2937 2936 2934 2932 2930 2929 2927 2926 2925 2923 2922 2921 2919 2918 2917 2915 2914 2912 2911 2910 2908 2907 2906 2905 2903 2902
2979 2979 2979 2979 2980 2980 2979 2979 2979 2978 2978 2977 2977 2976 2975 2975 2974 2973 2973 2972 2971 2970 2969 2969 2968 2967 2967 2966 2966 2966 2965 2964 2962 2960 2959 2957 2956 2956 2956 2955 2954 2952 2952 2950 2950 2951 2952 2951 2950 2949 2948 2947 2947 2945 2944 2943 2941 2939 2938 2936 2934 2933 2931 2929 2927 2926 2924 2923 2922 2920 2919 2917 2916 2915 2913 2912 2911 2909 2908 2906 2905 2903 2902 2901 2900 2899
2977 2976 2976 2977 2977 2977 2977 2976 2976 2976 2975 2975 2974 2973 2972 2972 2971 2970 2969 2969 2968 2967 2967 2966 2965 2964 2963 2963 2963 2962 2962 2961 2959 2957 2956 2954 2953 2953 2953 2952 2951 2949 2948 2946 2946 2946 2947 2948 2947 2946 2945 2944 2944 2942 2941 2940 2938 2937 2935 2933 2932 2930 2928 2926 2924 2923 2922 2920 2919 2917 2916 2914 2913 2912 2910 2909 2907 2906 2904 2903 2901 2900 2898 2897 2896 2895
2974 2974 2974 2974 2974 2974 2974 2974 2973 2973 2972 2972 2971 2970 2969 2969 2968 2967 2966 2966 2965 2964 2964 2963 2962 2962 2961 2960 2960 2959 2960 2958 2956 2954 2952 2951 2951 2950 2950 2949 2948 2946 2945 2943 2941 2941 2942 2943 2944 2944 2942 2941 2941 2940 2938 2937 2935 2933 2932 2930 2928 2927 2925 2923 2922 2920 2919 2917 2916 2914 2913 2912 2910 2908 2907 2905 2904 2902 2901 2900 2898 2896 2895 2893 2892 2892
2972 2972 2972 2972 2972 2971 2971 2971 2971 2970 2970 2969 2968 2967 2967 2966 2965 2964 2963 2963 2962 2962 2961 2961 2960 2959 2958 2957 2957 2957 2957 2956 2953 2951 2949 2948 2947 2947 2947 2946 2945 2943 2942 2940 2938 2937 2937 2937 2939 2940 2939 2938 2938 2937 2936 2934 2932 2930 2928 2927 2925 2924 2922 2921 2919 2917 2916 2914 2913 2912 2910 2908 2907 2905 2904 2902 2901 2900 2898 2897 2895 2893 2891 2890 2889 2888
2970 2969 2969 2969 2969 2969 2968 2968 2968 2967 2967 2966 2965 2965 2964 2963 2962 2962 2961 2960 2960 2959 2958 2958 2957 2957 2956 2955 2955 2954 2954 2952 2950 2948 2946 2945 2945 2944 2944 2943 2942 2940 2939 2937 2936 2934 2933 2932 2933 2934 2934 2935 2934 2933 2932 2931 2929 2927 2925 2924 2922 2921 2919 2917 2916 2914 2912 2911 2910 2908 2907 2905 2904 2902 2901 2900 2898 2897 2895 2894 2892 2890 2888 2887 2885 2884
2967 2967 2967 2967 2966 2966 2966 2965 2965 2964 2964 2963 2963 2962 2961 2961 2960 2959 2958 2958 2957 2957 2956 2955 2955 2954 2953 2953 2952 2952 2951 2950 2947 2945 2943 2943 2942 2941 2941 2940 2939 2937 2936 2934 2933 2932 2930 2929 2929 2929 2929 2930 2930 2930 2928 2927 2925 2924 2922 2920 2919 2917 2916 2914 2912 2911 2909 2908 2907 2905 2904 2902 2901 2899 2898 2897 2895 2894 2892 2891 2889 2887 2885 2883 2882 2880
2965 2965 2964 2964 2964 2963 2963 2963 2962 2962 2961 2961 2960 2959 2959 2958 2957 2957 2956 2956 2955 2954 2953 2953 2952 2951 2951 2950 2950 2949 2948 2947 2945 2942 2941 2940 2939 2938 2937 2937 2936 2934 2933 2932 2930 2929 2927 2927 2926 2925 2924 2925 2925 2925 2925 2923 2922 2920 2919 2917 2915 2913 2912 2910 2909 2907 2906 2904 2903 2902 2900 2899 2897 2896 2895 2893 2892 2891 2889 2888 2886 2884 2882 2880 2878 2876
2963 2962 2962 2962 2961 2961 2961 2960 2960 2959 2958 2958 2957 2957 2956 2956 2955 2954 2954 2953 2952 2952 2951 2950 2950 2949 2948 2947 2947 2946 2946 2944 2942 2940 2938 2937 2936 2935 2934 2933 2932 2931 2930 2928 2927 2926 2925 2923 2923 2922 2921 2920 2920 2920 2920 2919 2918 2917 2915 2913 2912 2910 2908 2907 2905 2903 2902 2901 2900 2898 2897 2895 2894 2893 2892 2890 2889 2887 2886 2884 2882 2881 2879 2877 2875 2873
2961 2960 2960 2959 2959 2958 2958 2958 2957 2957 2956 2955 2955 2954 2954 2953 2953 2952 2952 2951 2950 2949 2948 2948 2947 2946 2946 2945 2944 2943 2942 2941 2939 2938 2936 2934 2933 2932 2932 2931 2929 2928 2927 2925 2924 2923 2922 2921 2920 2919 2918 2917 2916 2916 2915 2915 2914 2913 2911 2910 2908 2907 2905 2903 2902 2900 2898 2897 2896 2895 2893 2892 2891 2889 2888 2887 2885 2883 2882 2881 2879 2877 2875 2873 2872 2870
2959 2958 2958 2957 2957 2956 2956 2955 2955 2954 2954 2953 2952 2952 2952 2951 2950 2950 2949 2948 2947 2947 2946 2945 2945 2944 2943 2942 2941 2940 2939 2938 2937 2935 2933 2932 2931 2930 2929 2928 2927 2926 2924 2923 2921 2920 2919 2917 2916 2915 2915 2914 2913 2912 2911 2910 2909 2908 2907 2906 2905 2903 2902 2900 2898 2897 2895 2894 2892 2891 2890 2888 2887 2885 2884 2883 2881 2880 2878 2877 2875 2873 2872 2870 2868 2867
2957 2957 2956 2955 2954 2954 2953 2953 2952 2952 2952 2951 2951 2950 2949 2949 2948 2947 2947 2946 2945 2944 2944 2943 2942 2942 2941 2939 2938 2937 2936 2935 2934 2932 2931 2929 2928 2927 2926 2925 2924 2923 2922 2920 2919 2917 2916 2915 2913 2912 2911 2910 2909 2909 2908 2907 2905 2904 2902 2902 2901 2900 2899 2897 2895 2894 2892 2891 2889 2888 2887 2885 2883 2882 2880 2879 2877 2876 2874 2872 2871 2870 2868 2866 2865 2864
2955 2954 2954 2953 2952 2952 2951 2951 2950 2950 2949 2949 2948 2947 2947 2946 2946 2945 2944 2944 2943 2942 2941 2941 2940 2939 2938 2937 2936 2934 2933 2932 2931 2930 2928 2927 2926 2924 2923 2922 2922 2920 2919 2918 2916 2915 2913 2912 2911 2909 2908 2907 2906 2905 2904 2904 2902 2901 2899 2897 2897 2896 2896 2894 2892 2890 2889 2887 2886 2884 2882 2881 2880 2878 2876 2875 2873 2872 2870 2868 2867 2865 2864 2862 2860 2859
2952 2952 2951 2951 2950 2949 2949 2948 2948 2948 2947 2947 2946 2945 2944 2944 2943 2943 2942 2942 2941 2940 2939 2938 2937 2937 2936 2935 2933 2932 2931 2929 2928 2927 2926 2925 2923 2922 2921 2920 2918 2917 2916 2915 2914 2912 2911 2910 2908 2907 2906 2904 2903 2902 2901 2901 2899 2897 2896 2894 2893 2892 2892 2891 2889 2887 2885 2884 2882 2881 2879 2877 2876 2874 2872 2871 2869 2867 2866 2864 2862 2861 2859 2858 2856 2854
2950 2949 2949 2948 2948 2947 2947 2946 2946 2945 2945 2944 2944 2943 2942 2942 2941 2941 2940 2939 2938 2937 2937 2936 2935 2934 2933 2932 2931 2930 2928 2927 2926 2925 2923 2922 2921 2919 2918 2917 2916 2914 2913 2912 2911 2910 2909 2907 2906 2904 2903 2902 2900 2899 2898 2898 2897 2895 2893 2891 2889 2888 2887 2887 2886 2884 2881 2880 2878 2877 2875 2873 2872 2870 2868 2867 2865 2863 2862 2860 2858 2857 2855 2853 2852 2850
2947 2947 2947 2946 2946 2945 2945 2944 2944 2943 2943 2942 2942 2941 2940 2940 2939 2938 2938 2937 2936 2935 2934 2933 2932 2932 2931 2930 2929 2927 2926 2925 2923 2922 2921 2920 2919 2917 2916 2915 2913 2912 2911 2910 2909 2908 2907 2906 2904 2902 2901 2900 2898 2897 2896 2895 2894 2892 2891 2888 2886 2884 2883 2883 2882 2881 2879 2877 2875 2873 2872 2870 2868 2866 2865 2863 2861 2859 2857 2856 2854 2852 2851 2849 2847 2846
2945 2945 2945 2944 2944 2943 2943 2942 2942 2941 2941 2940 2940 2939 2938 2937 2937 2936 2936 2935 2934 2933 2932 2931 2930 2930 2929 2928 2927 2926 2925 2923 2922 2921 2919 2918 2917 2915 2914 2913 2912 2910 2909 2908 2907 2906 2904 2903 2902 2901 2899 2897 2896 2895 2893 2892 2891 2890 2888 2886 2884 2882 2880 2879 2878 2877 2875 2873 2872 2870 2868 2866 2864 2862 2861 2859 2857 2855 2853 2852 2850 2848 2847 2845 2843 2841
2943 2943 2942 2942 2942 2941 2941 2940 2940 2939 2939 2938 2938 2937 2936 2935 2935 2934 2933 2932 2932 2931 2930 2929 2928 2927 2927 2926 2925 2924 2923 2922 2921 2919 2918 2917 2915 2914 2912 2911 2910 2908 2907 2906 2905 2903 2902 2901 2900 2899 2898 2896 2894 2893 2891 2890 2888 2887 2885 2884 2882 2880 2878 2876 2875 2873 2871 2870 2868 2867 2865 2862 2860 2858 2856 2855 2853 2851 2849 2847 2846 2844 2842 2841 2839 2837
2942 2941 2941 2940 2940 2939 2939 2938 2938 2937 2937 2937 2936 2935 2934 2933 2932 2932 2931 2930 2930 2929 2928 2927 2926 2925 2925 2924 2923 2922 2921 2920 2919 2918 2917 2915 2914 2912 2911 2909 2908 2907 2905 2904 2902 2901 2900 2899 2897 2896 2895 2894 2892 2891 2890 2887 2886 2884 2882 2881 2879 2877 2876 2874 2872 2870 2868 2866 2865 2863 2861 2859 2856 2854 2852 2850 2848 2847 2845 2843 2842 2840 2838 2837 2835 2833
2940 2939 2939 2938 2938 2937 2937 2937 2936 2936 2935 2934 2934 2933 2932 2931 2931 2930 2929 2928 2927 2927 2926 2925 2924 2923 2922 2922 2921 2920 2919 2918 2917 2916 2915 2913 2912 2911 2909 2907 2906 2905 2903 2902 2901 2899 2898 2897 2896 2894 2893 2891 2890 2889 2888 2886 2884 2882 2880 2878 2877 2875 2873 2872 2870 2868 2865 2863 2861 2859 2857 2855 2852 2850 2847 2846 2844 2842 2841 2839 2838 2836 2834 2832 2830 2828
2938 2937 2937 2937 2936 2936 2935 2935 2934 2934 2933 2932 2932 2931 2930 2929 2928 2928 2927 2926 2925 2924 2924 2923 2922 2921 2920 2919 2918 2918 2917 2916 2915 2914 2913 2912 2910 2909 2907 2906 2904 2903 2901 2900 2899 2897 2896 2895 2894 2893 2891 2890 2888 2887 2886 2885 2883 2880 2878 2876 2874 2872 2870 2868 2867 2865 2862 2860 2858 2856 2854 2851 2848 2846 2843 2841 2839 2838 2837 2835 2834 2832 2831 2828 2826 2824
2936 2936 2935 2935 2934 2934 2933 2933 2932 2932 2931 2931 2930 2929 2928 2927 2926 2926 2925 2924 2923 2922 2922 2921 2920 2919 2918 2917 2917 2916 2915 2913 2912 2912 2910 2909 2908 2907 2905 2904 2902 2901 2899 2898 2897 2896 2894 2893 2892 2891 2890 2888 2886 2885 2883 2882 2881 2879 2876 2874 2872 2869 2867 2865 2864 2862 2860 2857 2855 2853 2851 2848 2845 2842 2839 2836 2834 2833 2832 2831 2830 2829 2827 2824 2822 2819
2935 2934 2934 2933 2933 2932 2932 2931 2931 2930 2929 2928 2928 2927 2926 2925 2924 2924 2923 2922 2922 2921 2920 2919 2918 2917 2917 2916 2915 2913 2912 2911 2910 2909 2908 2907 2906 2904 2903 2902 2900 2899 2897 2896 2895 2894 2893 2892 2891 2890 2889 2887 2885 2882 2881 2880 2878 2876 2874 2872 2869 2867 2864 2862 2861 2859 2857 2854 2852 2850 2847 2845 2842 2839 2836 2833 2830 2828 2827 2826 2826 2824 2823 2821 2817 2815
2933 2932 2932 2932 2931 2930 2930 2929 2928 2928 2927 2927 2926 2925 2924 2923 2923 2922 2921 2920 2920 2919 2918 2917 2916 2915 2914 2913 2912 2912 2910 2909 2908 2907 2906 2905 2903 2902 2901 2899 2898 2897 2895 2894 2893 2892 2891 2890 2889 2889 2888 2886 2883 2881 2879 2877 2875 2873 2872 2869 2867 2864 2862 2859 2857 2856 2853 2851 2849 2846 2844 2841 2838 2836 2833 2830 2826 2824 2822 2822 2821 2820 2819 2816 2813 2810